Location: Schommer Observatory
(40.5200°N, 74.4500°W)
Time: 16:51:16
(UTC-04:00)

N. Korean satellite - Pass Details

Date: 16 October 2017
Orbit: 459 x 517 km, 97.2° (Epoch: 17 October)

Event Time Altitude Azimuth Distance (km) Brightness Sun altitude
Rises 20:10:36 0° 215° (SW) 2,537 10.6 -22.6°
Reaches altitude 10° 20:14:16 10° 255° (WSW) 1,649 10.2 -23.2°
Maximum altitude 20:15:06 11° 269° (W) 1,606 10.2 -23.4°
Drops below altitude 10° 20:15:56 10° 282° (WNW) 1,645 10.3 -23.6°
Sets 20:19:35 0° 323° (NW) 2,516 10.9 -24.2°
